Location: Santa Giusta
(39.8800°N, 8.6069°E)
Time: 17:37:47
(UTC+00:00)

ATLAS 2AS CENTAUR R/B - Pass Details

Date: 02 February 2023
Orbit: 986 x 1226 km, 63.7° (Epoch: 30 March)

Event Time Altitude Azimuth Distance (km) Brightness Sun altitude
Rises 19:09:58 0° 319° (NW) 3,912 6.2 -27.9°
Reaches altitude 10° 19:12:52 10° 312° (NW) 2,914 5.6 -28.4°
Maximum altitude 19:19:05 38° 247° (WSW) 1,517 3.8 -29.6°
Drops below altitude 10° 19:25:01 10° 181° (S) 2,770 4.8 -30.8°
Enters shadow 19:25:59 - 178° (S) 3,095 5.1 -31.0°
